Stündliche Wetter Abertridwr

Heute, 17 Juni, Donnerstag

Zeit Temperatur Niederschläge Wind Luftdruck Luftfeuchtigkeit
00:00 +14°C° 0 mm 3 m/S 745 mmHg 92%
01:00 +13°C° 0 mm 3 m/S 745 mmHg 91%
02:00 +12°C° 0 mm 3 m/S 745 mmHg 90%
03:00 +12°C° 0 mm 3 m/S 745 mmHg 88%
04:00 +12°C° 0 mm 3 m/S 746 mmHg 87%
05:00 +12°C° 0 mm 3 m/S 746 mmHg 85%
06:00 +12°C° 0 mm 3 m/S 746 mmHg 83%
07:00 +14°C° 0 mm 2 m/S 746 mmHg 82%
08:00 +14°C° 0 mm 2 m/S 746 mmHg 81%
09:00 +15°C° 0 mm 2 m/S 747 mmHg 80%
10:00 +16°C° 0 mm 2 m/S 747 mmHg 77%
11:00 +16°C° 0 mm 2 m/S 747 mmHg 73%
12:00 +17°C° 0 mm 2 m/S 748 mmHg 70%
13:00 +18°C° 0 mm 2 m/S 748 mmHg 69%
14:00 +18°C° 0 mm 3 m/S 748 mmHg 68%
15:00 +19°C° 0 mm 3 m/S 748 mmHg 67%
16:00 +18°C° 0 mm 3 m/S 748 mmHg 71%
17:00 +17°C° 0 mm 3 m/S 749 mmHg 75%
18:00 +16°C° 0 mm 3 m/S 749 mmHg 78%
19:00 +14°C° 0 mm 3 m/S 749 mmHg 80%
20:00 +14°C° 0 mm 3 m/S 750 mmHg 81%
21:00 +13°C° 0 mm 3 m/S 750 mmHg 83%
22:00 +13°C° 0 mm 2 m/S 750 mmHg 82%
23:00 +13°C° 0 mm 2 m/S 750 mmHg 82%

Morgen, 18 Juni, Freitag

Zeit Temperatur Niederschläge Wind Luftdruck Luftfeuchtigkeit
00:00 +13°C° 0 mm 2 m/S 750 mmHg 81%
01:00 +11°C° 0 mm 3 m/S 750 mmHg 81%
02:00 +11°C° 0 mm 3 m/S 750 mmHg 81%
03:00 +11°C° 0 mm 3 m/S 750 mmHg 81%
04:00 +11°C° 0 mm 3 m/S 751 mmHg 81%
05:00 +11°C° 0 mm 3 m/S 751 mmHg 81%
06:00 +11°C° 0 mm 3 m/S 751 mmHg 81%
07:00 +12°C° 0 mm 3 m/S 751 mmHg 76%
08:00 +13°C° 0 mm 4 m/S 751 mmHg 72%
09:00 +14°C° 0 mm 4 m/S 751 mmHg 67%
10:00 +15°C° 0 mm 4 m/S 751 mmHg 67%
11:00 +17°C° 0 mm 4 m/S 751 mmHg 67%
12:00 +18°C° 0 mm 4 m/S 751 mmHg 67%
13:00 +18°C° 0 mm 3 m/S 750 mmHg 68%
14:00 +17°C° 0 mm 3 m/S 750 mmHg 69%
15:00 +17°C° 0 mm 3 m/S 750 mmHg 70%
16:00 +17°C° 0 mm 2 m/S 750 mmHg 72%
17:00 +17°C° 0 mm 2 m/S 750 mmHg 74%
18:00 +18°C° 0 mm 1 m/S 750 mmHg 76%
19:00 +16°C° 0.1 mm 1 m/S 751 mmHg 78%
20:00 +15°C° 0.1 mm 1 m/S 751 mmHg 81%
21:00 +14°C° 0.1 mm 1 m/S 751 mmHg 83%
22:00 +13°C° 0 mm 1 m/S 751 mmHg 84%
23:00 +13°C° 0 mm 1 m/S 751 mmHg 86%

übermorgen, 19 Juni, Samstag

Zeit Temperatur Niederschläge Wind Luftdruck Luftfeuchtigkeit
00:00 +13°C° 0 mm 1 m/S 751 mmHg 87%
01:00 +12°C° 0 mm 1 m/S 751 mmHg 88%
02:00 +11°C° 0 mm 1 m/S 750 mmHg 89%
03:00 +11°C° 0 mm 1 m/S 750 mmHg 91%
04:00 +11°C° 0 mm 1 m/S 750 mmHg 90%
05:00 +12°C° 0 mm 1 m/S 750 mmHg 90%
06:00 +13°C° 0 mm 1 m/S 750 mmHg 89%
07:00 +14°C° 0 mm 1 m/S 750 mmHg 87%
08:00 +15°C° 0 mm 2 m/S 750 mmHg 85%
09:00 +16°C° 0 mm 3 m/S 750 mmHg 82%
10:00 +17°C° 0.1 mm 3 m/S 749 mmHg 78%
11:00 +18°C° 0.1 mm 4 m/S 749 mmHg 74%
12:00 +19°C° 0.1 mm 5 m/S 748 mmHg 69%
13:00 +18°C° 0.1 mm 4 m/S 748 mmHg 74%
14:00 +18°C° 0.1 mm 4 m/S 747 mmHg 79%
15:00 +17°C° 0.1 mm 3 m/S 747 mmHg 84%
16:00 +17°C° 0.1 mm 3 m/S 746 mmHg 84%
17:00 +17°C° 0.1 mm 3 m/S 746 mmHg 85%
18:00 +17°C° 0.1 mm 3 m/S 745 mmHg 86%
19:00 +16°C° 1.1 mm 3 m/S 745 mmHg 90%
20:00 +14°C° 1.1 mm 4 m/S 744 mmHg 94%
21:00 +14°C° 1.1 mm 4 m/S 744 mmHg 97%
22:00 +14°C° 2.5 mm 4 m/S 743 mmHg 98%
23:00 +14°C° 2.5 mm 4 m/S 743 mmHg 98%

20 Juni, Sonntag

Zeit Temperatur Niederschläge Wind Luftdruck Luftfeuchtigkeit
00:00 +14°C° 2.5 mm 3 m/S 742 mmHg 98%
01:00 +14°C° 0.9 mm 3 m/S 741 mmHg 98%
02:00 +14°C° 0.9 mm 3 m/S 741 mmHg 98%
03:00 +15°C° 0.9 mm 2 m/S 740 mmHg 99%
04:00 +15°C° 1.8 mm 2 m/S 739 mmHg 99%
05:00 +15°C° 1.8 mm 2 m/S 739 mmHg 99%
06:00 +15°C° 1.8 mm 2 m/S 739 mmHg 99%
07:00 +15°C° 0.8 mm 2 m/S 739 mmHg 98%
08:00 +15°C° 0.8 mm 1 m/S 739 mmHg 98%
09:00 +15°C° 0.8 mm 1 m/S 739 mmHg 98%
10:00 +16°C° 0.2 mm 1 m/S 738 mmHg 95%
11:00 +18°C° 0.2 mm 1 m/S 738 mmHg 91%
12:00 +18°C° 0.2 mm 1 m/S 738 mmHg 88%
13:00 +18°C° 0.8 mm 2 m/S 738 mmHg 86%
14:00 +18°C° 0.8 mm 4 m/S 738 mmHg 83%
15:00 +19°C° 0.8 mm 6 m/S 738 mmHg 81%
16:00 +17°C° 0.5 mm 5 m/S 738 mmHg 84%
17:00 +17°C° 0.5 mm 5 m/S 738 mmHg 87%
18:00 +16°C° 0.5 mm 5 m/S 738 mmHg 90%
19:00 +15°C° 0.2 mm 4 m/S 738 mmHg 91%
20:00 +14°C° 0.2 mm 3 m/S 739 mmHg 93%
21:00 +14°C° 0.2 mm 2 m/S 739 mmHg 95%
22:00 +13°C° 0 mm 2 m/S 739 mmHg 95%
23:00 +13°C° 0 mm 2 m/S 739 mmHg 95%

21 Juni, Montag

Zeit Temperatur Niederschläge Wind Luftdruck Luftfeuchtigkeit
00:00 +12°C° 0 mm 2 m/S 739 mmHg 95%
01:00 +12°C° 0 mm 2 m/S 739 mmHg 95%
02:00 +12°C° 0 mm 2 m/S 739 mmHg 96%
03:00 +12°C° 0 mm 2 m/S 739 mmHg 96%
04:00 +13°C° 0 mm 2 m/S 739 mmHg 96%
05:00 +13°C° 0 mm 2 m/S 739 mmHg 96%
06:00 +14°C° 0 mm 2 m/S 739 mmHg 96%
07:00 +14°C° 0.3 mm 2 m/S 739 mmHg 95%
08:00 +15°C° 0.3 mm 2 m/S 739 mmHg 93%
09:00 +15°C° 0.3 mm 2 m/S 739 mmHg 92%
10:00 +16°C° 0.7 mm 2 m/S 739 mmHg 88%
11:00 +17°C° 0.7 mm 2 m/S 739 mmHg 85%
12:00 +17°C° 0.7 mm 2 m/S 739 mmHg 82%
13:00 +18°C° 1.2 mm 2 m/S 739 mmHg 81%
14:00 +18°C° 1.2 mm 2 m/S 739 mmHg 81%
15:00 +18°C° 1.2 mm 2 m/S 739 mmHg 80%
16:00 +17°C° 1 mm 3 m/S 740 mmHg 84%
17:00 +15°C° 1 mm 4 m/S 740 mmHg 88%
18:00 +14°C° 1 mm 5 m/S 740 mmHg 92%
19:00 +13°C° 0.5 mm 6 m/S 741 mmHg 92%
20:00 +11°C° 0.5 mm 6 m/S 742 mmHg 92%
21:00 +10°C° 0.5 mm 6 m/S 742 mmHg 92%
22:00 +10°C° 0.1 mm 7 m/S 743 mmHg 91%
23:00 +9°C° 0.1 mm 7 m/S 744 mmHg 90%

22 Juni, Dienstag

Zeit Temperatur Niederschläge Wind Luftdruck Luftfeuchtigkeit
00:00 +9°C° 0.1 mm 7 m/S 744 mmHg 89%
01:00 +9°C° 0 mm 7 m/S 745 mmHg 87%
02:00 +9°C° 0 mm 8 m/S 745 mmHg 84%
03:00 +9°C° 0 mm 8 m/S 746 mmHg 82%
04:00 +9°C° 0 mm 8 m/S 746 mmHg 82%
05:00 +9°C° 0 mm 7 m/S 747 mmHg 83%
06:00 +8°C° 0 mm 7 m/S 747 mmHg 83%
07:00 +9°C° 0.1 mm 7 m/S 748 mmHg 82%
08:00 +9°C° 0.1 mm 7 m/S 748 mmHg 81%
09:00 +9°C° 0.1 mm 7 m/S 749 mmHg 80%
10:00 +10°C° 0 mm 7 m/S 749 mmHg 77%
11:00 +10°C° 0 mm 7 m/S 749 mmHg 73%
12:00 +10°C° 0 mm 7 m/S 750 mmHg 70%
13:00 +11°C° 0 mm 7 m/S 750 mmHg 70%
14:00 +11°C° 0 mm 7 m/S 750 mmHg 70%
15:00 +11°C° 0 mm 7 m/S 750 mmHg 70%
16:00 +11°C° 0 mm 7 m/S 750 mmHg 71%
17:00 +12°C° 0 mm 7 m/S 751 mmHg 72%
18:00 +12°C° 0 mm 7 m/S 751 mmHg 74%
19:00 +10°C° 0 mm 6 m/S 751 mmHg 78%
20:00 +9°C° 0 mm 5 m/S 751 mmHg 83%
21:00 +8°C° 0 mm 4 m/S 752 mmHg 87%
22:00 +8°C° 0 mm 4 m/S 752 mmHg 89%
23:00 +8°C° 0 mm 3 m/S 752 mmHg 90%
Mehr zeigen

Wir brauchen deine Erlaubnis

Meteoprog und unser Service Anbieter werden persönliche Daten aufbewahren, so wie Cookies, Geräte Bezeichnung oder ähnliche Technologien von deinem Gerät und Prozess, so wie Persönliche Daten Inhalte und Werbungen, genauso wie social Media und den Verkehr zu analysieren.

  • Aufbewahrung und/oder Zugang zu deiner Geräte Informationen.

    Cookies, Geräte Bezeichnung oder andere Informationen, können aufbewahrt oder Zugang zu deinem Gerät erhalten, für den Grund, der oben angegeben wird.

  • Personalisierte Werbung und Inhalte, Messungen, Einblick in das Publikum und Produkt Entwicklung.

    Werbungen und Inhalte können personalisiert werden, basierend auf ein Profil. Mehr Daten können besser personalisierte Werbungen und Inhalte hinzufügen. Werbung und Inhalte können gezeigt und gemessen werden. Einblicke über das Publikum, welche die Werbung gesehen haben und den Inhalt, können abgeleitet werden. So wie Daten können genutzt werden, um es zu verbessern oder die Benutzer Erfahrung zu verbessern das System und die Software.

Wenn du “Ich stimme zu” klickst, erlaubst du uns, die Cookies zu benutzen die Geräte Bezeichnung, den Web oder ähnliche Technologien zu benutzen. Deine Settings, können in deinem Gerät bei deinem Browser geändert werden.

Für den bestimmten Zweck, berechtigten Interessen beruhen darauf, mehr als auf den Inhalt. Du kannst mehr darüber in unseren Privaten und Cookie Politik lesen.